| time (UTC) | temp F | wind direction | speed knots | gust knots | rain 1hr in | rain 24hr in | rain mn in | humidity % | barometer mb |
| 20260507124012 | 41 | 225 | 0.0 | 0.0 | 0.00 | 0.00 | 0.00 | 77 | 1015.1 |
| 20260507123411 | 40 | 225 | 0.0 | 0.0 | 0.00 | 0.00 | 0.00 | 77 | 1015.0 |
| 20260507122811 | 39 | 270 | 0.0 | 0.0 | 0.00 | 0.00 | 0.00 | 81 | 1015.0 |
| 20260507122211 | 38 | 270 | 0.0 | 0.0 | 0.00 | 0.00 | 0.00 | 83 | 1015.0 |
| 20260507121611 | 37 | 270 | 0.0 | 0.0 | 0.00 | 0.00 | 0.00 | 86 | 1014.9 |
| 20260507121010 | 36 | 270 | 0.0 | 0.0 | 0.00 | 0.00 | 0.00 | 89 | 1014.9 |
| 20260507115210 | 34 | 270 | 0.0 | 0.0 | 0.00 | 0.00 | 0.00 | 94 | 1014.9 |
| 20260507114010 | 33 | 270 | 0.0 | 0.0 | 0.00 | 0.00 | 0.00 | 97 | 1014.7 |
| 20260507113410 | 32 | 270 | 0.0 | 0.0 | 0.00 | 0.00 | 0.00 | 98 | 1014.7 |
| 20260507112209 | 32 | 270 | 0.0 | 0.0 | 0.00 | 0.00 | 0.00 | 98 | 1014.8 |
| 20260507111609 | 32 | 270 | 0.0 | 0.0 | 0.00 | 0.00 | 0.00 | 97 | 1014.8 |
| 20260507111009 | 31 | 270 | 0.0 | 0.0 | 0.00 | 0.00 | 0.00 | 97 | 1014.7 |
| 20260507110409 | 31 | 270 | 0.0 | 0.0 | 0.00 | 0.00 | 0.00 | 98 | 1014.7 |
| 20260507105809 | 31 | 270 | 0.0 | 0.0 | 0.00 | 0.00 | 0.00 | 98 | 1014.7 |
| 20260507105208 | 31 | 270 | 0.0 | 0.0 | 0.00 | 0.00 | 0.00 | 98 | 1014.7 |
| 20260507104608 | 31 | 270 | 0.0 | 0.0 | 0.00 | 0.00 | 0.00 | 98 | 1014.7 |
| 20260507104008 | 31 | 270 | 0.0 | 0.0 | 0.00 | 0.00 | 0.00 | 99 | 1014.7 |
| 20260507103408 | 31 | 270 | 0.0 | 0.0 | 0.00 | 0.00 | 0.00 | 98 | 1014.8 |
| 20260507102808 | 31 | 270 | 0.0 | 0.0 | 0.00 | 0.00 | 0.00 | 99 | 1014.8 |
| 20260507102208 | 31 | 270 | 0.0 | 0.0 | 0.00 | 0.00 | 0.00 | 97 | 1014.7 |
| 20260507101607 | 31 | 270 | 0.0 | 0.0 | 0.00 | 0.00 | 0.00 | 97 | 1014.7 |
| 20260507101007 | 32 | 270 | 0.0 | 0.0 | 0.00 | 0.00 | 0.00 | 96 | 1014.6 |
| 20260507100407 | 32 | 270 | 0.0 | 0.0 | 0.00 | 0.00 | 0.00 | 95 | 1014.6 |
| 20260507095807 | 32 | 270 | 0.0 | 0.0 | 0.00 | 0.00 | 0.00 | 97 | 1014.7 |
| 20260507095207 | 31 | 270 | 0.0 | 0.0 | 0.00 | 0.00 | 0.00 | 97 | 1014.7 |
| 20260507094606 | 32 | 270 | 0.0 | 0.0 | 0.00 | 0.00 | 0.00 | 96 | 1014.8 |
| 20260507094006 | 32 | 270 | 0.0 | 0.0 | 0.00 | 0.00 | 0.00 | 96 | 1014.8 |
| 20260507093406 | 32 | 270 | 0.0 | 0.0 | 0.00 | 0.00 | 0.00 | 97 | 1014.7 |
| 20260507092806 | 32 | 270 | 0.0 | 0.0 | 0.00 | 0.00 | 0.00 | 95 | 1014.8 |
| 20260507092206 | 32 | 270 | 0.0 | 0.0 | 0.00 | 0.00 | 0.00 | 96 | 1014.8 |
| 20260507091606 | 32 | 270 | 0.0 | 0.0 | 0.00 | 0.00 | 0.00 | 97 | 1014.8 |
| 20260507091006 | 31 | 270 | 0.0 | 0.0 | 0.00 | 0.00 | 0.00 | 97 | 1014.8 |
| 20260507090405 | 32 | 270 | 0.0 | 0.9 | 0.00 | 0.00 | 0.00 | 97 | 1014.9 |
| 20260507085805 | 32 | 270 | 0.0 | 0.0 | 0.00 | 0.00 | 0.00 | 96 | 1014.8 |
| 20260507085205 | 32 | 270 | 0.0 | 0.0 | 0.00 | 0.00 | 0.00 | 96 | 1014.9 |
| 20260507084605 | 32 | 270 | 0.0 | 0.0 | 0.00 | 0.00 | 0.00 | 96 | 1014.8 |
| 20260507084005 | 32 | 270 | 0.0 | 0.0 | 0.00 | 0.00 | 0.00 | 96 | 1014.8 |
| 20260507083405 | 32 | 270 | 0.0 | 0.0 | 0.00 | 0.00 | 0.00 | 96 | 1014.9 |
| 20260507082804 | 32 | 270 | 0.0 | 0.0 | 0.00 | 0.00 | 0.00 | 95 | 1014.8 |
| 20260507082204 | 32 | 270 | 0.0 | 0.0 | 0.00 | 0.00 | 0.00 | 95 | 1014.8 |
| 20260507081604 | 33 | 270 | 0.0 | 0.0 | 0.00 | 0.00 | 0.00 | 95 | 1014.8 |
| 20260507081004 | 32 | 270 | 0.0 | 0.0 | 0.00 | 0.00 | 0.00 | 96 | 1014.7 |
| 20260507080404 | 33 | 270 | 0.0 | 0.0 | 0.00 | 0.00 | 0.00 | 96 | 1014.8 |
| 20260507075803 | 33 | 270 | 0.0 | 0.0 | 0.00 | 0.00 | 0.00 | 95 | 1014.7 |
| 20260507075203 | 33 | 270 | 0.0 | 0.0 | 0.00 | 0.00 | 0.00 | 95 | 1014.7 |
| 20260507074603 | 33 | 270 | 0.0 | 0.0 | 0.00 | 0.00 | 0.00 | 94 | 1014.8 |
| 20260507074003 | 33 | 270 | 0.0 | 0.0 | 0.00 | 0.00 | 0.00 | 94 | 1014.8 |
| 20260507072803 | 33 | 270 | 0.0 | 0.0 | 0.00 | 0.00 | 0.00 | 95 | 1014.8 |
| 20260507071002 | 33 | 270 | 0.0 | 0.0 | 0.00 | 0.00 | 0.00 | 94 | 1014.9 |
| 20260507065802 | 33 | 270 | 0.0 | 0.0 | 0.00 | 0.00 | 0.00 | 95 | 1015.1 |
| 20260507065202 | 33 | 270 | 0.0 | 0.0 | 0.00 | 0.00 | 0.00 | 95 | 1015.1 |
| 20260507064601 | 34 | 270 | 0.0 | 0.0 | 0.00 | 0.00 | 0.00 | 94 | 1015.1 |
| 20260507063401 | 34 | 270 | 0.0 | 0.0 | 0.00 | 0.00 | 0.00 | 94 | 1015.2 |
| 20260507062801 | 34 | 270 | 0.0 | 0.0 | 0.00 | 0.00 | 0.00 | 94 | 1015.2 |
| 20260507062201 | 34 | 270 | 0.0 | 0.0 | 0.00 | 0.00 | 0.00 | 93 | 1015.2 |
| 20260507061001 | 35 | 270 | 0.0 | 0.0 | 0.00 | 0.00 | 0.00 | 91 | 1015.2 |
| 20260507060400 | 35 | 270 | 0.0 | 0.0 | 0.00 | 0.00 | 0.00 | 91 | 1015.3 |
| 20260507055800 | 35 | 270 | 0.0 | 0.0 | 0.00 | 0.00 | 0.00 | 90 | 1015.2 |
| 20260507055200 | 35 | 270 | 0.0 | 0.0 | 0.00 | 0.00 | 0.00 | 90 | 1015.2 |
| 20260507054600 | 35 | 270 | 0.0 | 0.0 | 0.00 | 0.00 | 0.00 | 91 | 1015.2 |
| 20260507053959 | 35 | 270 | 0.0 | 0.0 | 0.00 | 0.00 | 0.00 | 90 | 1015.2 |
| 20260507053359 | 36 | 270 | 0.0 | 0.0 | 0.00 | 0.00 | 0.00 | 86 | 1015.1 |
| 20260507052759 | 36 | 270 | 0.0 | 0.0 | 0.00 | 0.00 | 0.00 | 86 | 1015.2 |
| 20260507052159 | 36 | 270 | 0.0 | 0.0 | 0.00 | 0.00 | 0.00 | 89 | 1015.2 |
| 20260507051559 | 36 | 270 | 0.0 | 0.0 | 0.00 | 0.00 | 0.00 | 86 | 1015.3 |
| 20260507050959 | 36 | 270 | 0.0 | 0.0 | 0.00 | 0.00 | 0.00 | 88 | 1015.3 |
| 20260507050358 | 37 | 270 | 0.0 | 0.0 | 0.00 | 0.00 | 0.00 | 86 | 1015.2 |
| 20260507045758 | 37 | 270 | 0.0 | 0.0 | 0.00 | 0.00 | 0.00 | 84 | 1015.2 |
| 20260507045158 | 37 | 270 | 0.0 | 0.0 | 0.00 | 0.00 | 0.00 | 82 | 1015.2 |
| 20260507043358 | 38 | 270 | 0.0 | 0.0 | 0.00 | 0.00 | 0.00 | 80 | 1015.2 |
| 20260507042758 | 38 | 270 | 0.0 | 0.0 | 0.00 | 0.00 | 0.00 | 78 | 1015.1 |
| 20260507041557 | 38 | 270 | 0.0 | 0.0 | 0.00 | 0.00 | 0.00 | 75 | 1015.1 |
| 20260507040957 | 39 | 270 | 0.0 | 0.0 | 0.00 | 0.00 | 0.00 | 71 | 1015.1 |
| 20260507040357 | 39 | 270 | 0.0 | 0.0 | 0.00 | 0.00 | 0.00 | 68 | 1015.2 |
| 20260507035757 | 40 | 270 | 0.0 | 0.0 | 0.00 | 0.00 | 0.00 | 67 | 1015.1 |
| 20260507035156 | 40 | 270 | 0.0 | 0.0 | 0.00 | 0.00 | 0.00 | 67 | 1015.1 |
| 20260507034556 | 40 | 270 | 0.0 | 0.0 | 0.00 | 0.00 | 0.00 | 68 | 1015.1 |
| 20260507033956 | 41 | 270 | 0.0 | 0.0 | 0.00 | 0.00 | 0.00 | 66 | 1015.1 |
| 20260507033356 | 40 | 270 | 0.0 | 0.0 | 0.00 | 0.00 | 0.00 | 65 | 1015.1 |
| 20260507032756 | 41 | 270 | 0.0 | 0.0 | 0.00 | 0.00 | 0.00 | 63 | 1015.2 |
| 20260507031555 | 42 | 270 | 0.0 | 0.0 | 0.00 | 0.00 | 0.00 | 62 | 1015.1 |
| 20260507030955 | 42 | 270 | 0.0 | 0.0 | 0.00 | 0.00 | 0.00 | 59 | 1015.1 |
| 20260507030355 | 43 | 270 | 0.0 | 0.0 | 0.00 | 0.00 | 0.00 | 59 | 1015.0 |
| 20260507025755 | 43 | 315 | 0.0 | 0.9 | 0.00 | 0.00 | 0.00 | 56 | 1015.0 |
| 20260507025155 | 43 | 315 | 0.0 | 0.9 | 0.00 | 0.00 | 0.00 | 56 | 1014.9 |
| 20260507024554 | 43 | 270 | 0.0 | 0.9 | 0.00 | 0.00 | 0.00 | 55 | 1015.0 |
| 20260507023954 | 44 | 270 | 0.9 | 1.7 | 0.00 | 0.00 | 0.00 | 55 | 1015.0 |
| 20260507023354 | 44 | 270 | 0.0 | 0.0 | 0.00 | 0.00 | 0.00 | 53 | 1014.9 |
| 20260507022754 | 44 | 270 | 0.9 | 2.6 | 0.00 | 0.00 | 0.00 | 53 | 1014.7 |
| 20260507022154 | 45 | 270 | 0.0 | 2.6 | 0.00 | 0.00 | 0.00 | 52 | 1014.7 |
| 20260507021554 | 45 | 315 | 0.9 | 3.5 | 0.00 | 0.00 | 0.00 | 52 | 1014.4 |
| 20260507020953 | 45 | 270 | 0.9 | 2.6 | 0.00 | 0.00 | 0.00 | 49 | 1014.4 |
| 20260507020353 | 46 | 270 | 1.7 | 5.2 | 0.00 | 0.00 | 0.00 | 50 | 1014.4 |
| 20260507015753 | 46 | 270 | 0.9 | 1.7 | 0.00 | 0.00 | 0.00 | 49 | 1014.3 |
| 20260507015153 | 46 | 270 | 2.6 | 4.3 | 0.00 | 0.00 | 0.00 | 48 | 1014.3 |
| 20260507014553 | 47 | 315 | 3.5 | 6.1 | 0.00 | 0.00 | 0.00 | 47 | 1014.2 |
| 20260507013953 | 47 | 270 | 1.7 | 4.3 | 0.00 | 0.00 | 0.00 | 48 | 1014.2 |
| 20260507013353 | 47 | 270 | 2.6 | 6.1 | 0.00 | 0.00 | 0.00 | 48 | 1014.1 |
| 20260507012152 | 48 | 270 | 2.6 | 7.0 | 0.00 | 0.00 | 0.00 | 46 | 1014.1 |
| 20260507011552 | 48 | 270 | 2.6 | 5.2 | 0.00 | 0.00 | 0.00 | 45 | 1014.1 |
| 20260507010352 | 49 | 270 | 5.2 | 9.6 | 0.00 | 0.00 | 0.00 | 44 | 1014.0 |
| 20260507005751 | 49 | 315 | 6.1 | 9.6 | 0.00 | 0.00 | 0.00 | 44 | 1014.0 |
| 20260507005152 | 49 | 270 | 8.7 | 13.9 | 0.00 | 0.00 | 0.00 | 44 | 1013.9 |
| 20260507004551 | 49 | 315 | 3.5 | 7.0 | 0.00 | 0.00 | 0.00 | 43 | 1013.9 |
| 20260507003951 | 50 | 270 | 5.2 | 9.6 | 0.00 | 0.00 | 0.00 | 43 | 1014.0 |
| 20260507002751 | 51 | 270 | 8.7 | 14.8 | 0.00 | 0.00 | 0.00 | 42 | 1013.9 |
| 20260507002151 | 51 | 270 | 4.3 | 8.7 | 0.00 | 0.00 | 0.00 | 43 | 1013.8 |
| 20260507001550 | 52 | 270 | 10.4 | 15.6 | 0.00 | 0.00 | 0.00 | 41 | 1013.8 |
| 20260507000950 | 52 | 270 | 8.7 | 21.7 | 0.00 | 0.00 | 0.00 | 40 | 1013.6 |
| 20260507000350 | 53 | 270 | 7.0 | 13.9 | 0.00 | 0.00 | 0.00 | 41 | 1013.5 |
| 20260506234550 | 53 | 270 | 8.7 | 14.8 | 0.00 | 0.00 | 0.00 | 41 | 1013.3 |
| 20260506233950 | 53 | 270 | 7.0 | 13.0 | 0.00 | 0.00 | 0.00 | 39 | 1013.2 |
| 20260506233349 | 54 | 270 | 9.6 | 15.6 | 0.00 | 0.00 | 0.00 | 42 | 1013.2 |
| 20260506232749 | 53 | 225 | 13.9 | 20.9 | 0.00 | 0.00 | 0.00 | 40 | 1013.2 |
| 20260506232149 | 54 | 270 | 5.2 | 9.6 | 0.00 | 0.00 | 0.00 | 41 | 1013.1 |
| 20260506231549 | 54 | 270 | 6.1 | 12.2 | 0.00 | 0.00 | 0.00 | 42 | 1013.2 |
| 20260506230949 | 54 | 270 | 7.8 | 13.0 | 0.00 | 0.00 | 0.00 | 42 | 1013.2 |
| 20260506230348 | 54 | 270 | 11.3 | 14.8 | 0.00 | 0.00 | 0.00 | 41 | 1013.1 |
| 20260506225748 | 56 | 270 | 17.4 | 33.9 | 0.00 | 0.00 | 0.00 | 38 | 1012.8 |
| 20260506225148 | 58 | 225 | 9.6 | 24.3 | 0.00 | 0.00 | 0.00 | 35 | 1012.6 |
| 20260506224548 | 56 | 270 | 7.8 | 14.8 | 0.00 | 0.00 | 0.00 | 38 | 1012.9 |
| 20260506223948 | 54 | 270 | 10.4 | 18.2 | 0.00 | 0.00 | 0.00 | 41 | 1012.9 |
| 20260506222147 | 56 | 270 | 9.6 | 17.4 | 0.00 | 0.00 | 0.00 | 37 | 1012.8 |
| 20260506221547 | 57 | 270 | 7.0 | 14.8 | 0.00 | 0.00 | 0.00 | 38 | 1012.7 |
| 20260506220947 | 59 | 270 | 10.4 | 19.1 | 0.00 | 0.00 | 0.00 | 36 | 1012.6 |
| 20260506220347 | 61 | 270 | 12.2 | 20.0 | 0.00 | 0.00 | 0.00 | 36 | 1012.5 |
| 20260506215747 | 59 | 315 | 2.6 | 7.8 | 0.00 | 0.00 | 0.00 | 39 | 1012.4 |
| 20260506215147 | 56 | 270 | 11.3 | 20.9 | 0.00 | 0.00 | 0.00 | 39 | 1012.6 |
| 20260506214547 | 60 | 225 | 16.5 | 35.6 | 0.00 | 0.00 | 0.00 | 34 | 1012.7 |
| 20260506213946 | 57 | 270 | 11.3 | 20.0 | 0.00 | 0.00 | 0.00 | 39 | 1012.4 |
| 20260506213346 | 62 | 270 | 13.9 | 26.1 | 0.00 | 0.00 | 0.00 | 34 | 1012.4 |
| 20260506212746 | 62 | 270 | 11.3 | 24.3 | 0.00 | 0.00 | 0.00 | 33 | 1012.5 |
| 20260506212146 | 63 | 225 | 4.3 | 9.6 | 0.00 | 0.00 | 0.00 | 37 | 1012.2 |
| 20260506211546 | 58 | 270 | 15.6 | 23.5 | 0.00 | 0.00 | 0.00 | 36 | 1012.5 |
| 20260506210945 | 59 | 225 | 7.0 | 10.4 | 0.00 | 0.00 | 0.00 | 37 | 1012.1 |
| 20260506210345 | 60 | 270 | 1.7 | 5.2 | 0.00 | 0.00 | 0.00 | 36 | 1012.3 |
| 20260506205745 | 57 | 225 | 13.9 | 26.9 | 0.00 | 0.00 | 0.00 | 40 | 1012.3 |
| 20260506205145 | 60 | 270 | 16.5 | 22.6 | 0.00 | 0.00 | 0.00 | 35 | 1012.4 |
| 20260506204545 | 59 | 225 | 9.6 | 20.0 | 0.00 | 0.00 | 0.00 | 38 | 1012.2 |
| 20260506203945 | 58 | 225 | 10.4 | 20.0 | 0.00 | 0.00 | 0.00 | 39 | 1012.5 |
| 20260506203345 | 59 | 225 | 20.0 | 33.0 | 0.00 | 0.00 | 0.00 | 36 | 1012.3 |
| 20260506202744 | 61 | 225 | 8.7 | 19.1 | 0.00 | 0.00 | 0.00 | 31 | 1012.2 |
| 20260506201544 | 59 | 225 | 18.2 | 33.0 | 0.00 | 0.00 | 0.00 | 33 | 1012.5 |
| 20260506200944 | 60 | 225 | 20.9 | 31.3 | 0.00 | 0.00 | 0.00 | 34 | 1012.6 |
| 20260506200344 | 62 | 270 | 11.3 | 20.9 | 0.00 | 0.00 | 0.00 | 31 | 1012.6 |
| 20260506194543 | 60 | 270 | 10.4 | 21.7 | 0.00 | 0.00 | 0.00 | 36 | 1012.8 |
| 20260506193943 | 59 | 225 | 10.4 | 17.4 | 0.00 | 0.00 | 0.00 | 38 | 1012.8 |
| 20260506193343 | 56 | 270 | 20.0 | 28.7 | 0.00 | 0.00 | 0.00 | 37 | 1012.9 |
| 20260506192743 | 57 | 225 | 13.0 | 21.7 | 0.00 | 0.00 | 0.00 | 39 | 1013.0 |
| 20260506192143 | 58 | 270 | 10.4 | 17.4 | 0.00 | 0.00 | 0.00 | 36 | 1012.9 |
| 20260506191543 | 59 | 225 | 11.3 | 18.2 | 0.00 | 0.00 | 0.00 | 39 | 1012.8 |
| 20260506190942 | 58 | 270 | 7.8 | 13.0 | 0.00 | 0.00 | 0.00 | 37 | 1012.9 |
| 20260506190342 | 59 | 225 | 13.0 | 20.9 | 0.00 | 0.00 | 0.00 | 37 | 1012.9 |
| 20260506185742 | 60 | 270 | 5.2 | 7.0 | 0.00 | 0.00 | 0.00 | 39 | 1012.9 |
| 20260506185142 | 57 | 270 | 9.6 | 17.4 | 0.00 | 0.00 | 0.00 | 37 | 1012.9 |
| 20260506184542 | 57 | 270 | 8.7 | 13.0 | 0.00 | 0.00 | 0.00 | 38 | 1013.1 |
| 20260506182741 | 55 | 270 | 10.4 | 18.2 | 0.00 | 0.00 | 0.00 | 39 | 1013.1 |
| 20260506182141 | 56 | 270 | 13.0 | 20.0 | 0.00 | 0.00 | 0.00 | 38 | 1013.1 |
| 20260506181541 | 56 | 270 | 13.0 | 20.9 | 0.00 | 0.00 | 0.00 | 39 | 1013.0 |
| 20260506180946 | 57 | 270 | 6.1 | 12.2 | 0.00 | 0.00 | 0.00 | 39 | 1012.9 |
| 20260506180341 | 56 | 270 | 8.7 | 11.3 | 0.00 | 0.00 | 0.00 | 42 | 1013.0 |
| 20260506175740 | 57 | 270 | 9.6 | 18.2 | 0.00 | 0.00 | 0.00 | 37 | 1013.0 |
| 20260506174540 | 55 | 225 | 13.0 | 16.5 | 0.00 | 0.00 | 0.00 | 42 | 1013.1 |
| 20260506173940 | 54 | 225 | 12.2 | 21.7 | 0.00 | 0.00 | 0.00 | 40 | 1013.1 |
| 20260506173340 | 56 | 225 | 9.6 | 18.2 | 0.00 | 0.00 | 0.00 | 40 | 1013.2 |
| 20260506172739 | 57 | 270 | 7.0 | 9.6 | 0.00 | 0.00 | 0.00 | 40 | 1013.2 |
| 20260506172140 | 56 | 270 | 10.4 | 17.4 | 0.00 | 0.00 | 0.00 | 37 | 1013.2 |
| 20260506170939 | 57 | 225 | 12.2 | 19.1 | 0.00 | 0.00 | 0.00 | 39 | 1013.2 |
| 20260506170339 | 55 | 270 | 12.2 | 19.1 | 0.00 | 0.00 | 0.00 | 38 | 1013.3 |
| 20260506165739 | 58 | 315 | 6.1 | 11.3 | 0.00 | 0.00 | 0.00 | 38 | 1013.3 |
| 20260506165139 | 58 | 270 | 3.5 | 7.0 | 0.00 | 0.00 | 0.00 | 42 | 1013.2 |
| 20260506164538 | 55 | 225 | 11.3 | 21.7 | 0.00 | 0.00 | 0.00 | 40 | 1013.3 |
| 20260506163938 | 55 | 225 | 10.4 | 17.4 | 0.00 | 0.00 | 0.00 | 42 | 1013.4 |
| 20260506163338 | 56 | 270 | 7.8 | 14.8 | 0.00 | 0.00 | 0.00 | 39 | 1013.2 |
| 20260506162138 | 55 | 270 | 7.0 | 9.6 | 0.00 | 0.00 | 0.00 | 40 | 1013.3 |
| 20260506161538 | 55 | 225 | 13.0 | 19.1 | 0.00 | 0.00 | 0.00 | 39 | 1013.1 |
| 20260506160937 | 55 | 225 | 12.2 | 14.8 | 0.00 | 0.00 | 0.00 | 39 | 1013.2 |
| 20260506155737 | 54 | 225 | 10.4 | 13.0 | 0.00 | 0.00 | 0.00 | 38 | 1013.2 |
| 20260506155137 | 54 | 225 | 12.2 | 21.7 | 0.00 | 0.00 | 0.00 | 39 | 1013.3 |
| 20260506154537 | 55 | 225 | 10.4 | 23.5 | 0.00 | 0.00 | 0.00 | 40 | 1013.2 |
| 20260506153937 | 55 | 225 | 8.7 | 14.8 | 0.00 | 0.00 | 0.00 | 37 | 1013.3 |
| 20260506152136 | 54 | 270 | 3.5 | 7.0 | 0.00 | 0.00 | 0.00 | 38 | 1013.3 |
| 20260506151536 | 53 | 270 | 9.6 | 17.4 | 0.00 | 0.00 | 0.00 | 39 | 1013.4 |
| 20260506150936 | 54 | 225 | 12.2 | 20.0 | 0.00 | 0.00 | 0.00 | 41 | 1013.5 |
| 20260506145736 | 54 | 270 | 4.3 | 6.1 | 0.00 | 0.00 | 0.00 | 39 | 1013.4 |
| 20260506144535 | 53 | 270 | 9.6 | 18.2 | 0.00 | 0.00 | 0.00 | 42 | 1013.4 |
| 20260506143935 | 53 | 270 | 10.4 | 20.9 | 0.00 | 0.00 | 0.00 | 40 | 1013.5 |
| 20260506143335 | 53 | 270 | 6.1 | 16.5 | 0.00 | 0.00 | 0.00 | 41 | 1013.5 |
| 20260506142735 | 54 | 270 | 4.3 | 7.8 | 0.00 | 0.00 | 0.00 | 40 | 1013.4 |
| 20260506142135 | 53 | 315 | 7.8 | 13.9 | 0.00 | 0.00 | 0.00 | 42 | 1013.4 |
| 20260506141534 | 52 | 225 | 7.8 | 14.8 | 0.00 | 0.00 | 0.00 | 42 | 1013.3 |
| 20260506140934 | 52 | 270 | 6.1 | 10.4 | 0.00 | 0.00 | 0.00 | 43 | 1013.3 |
| 20260506140334 | 52 | 270 | 3.5 | 5.2 | 0.00 | 0.00 | 0.00 | 41 | 1013.4 |
| 20260506135734 | 52 | 225 | 4.3 | 7.0 | 0.00 | 0.00 | 0.00 | 44 | 1013.3 |
| 20260506135134 | 52 | 225 | 3.5 | 5.2 | 0.00 | 0.00 | 0.00 | 43 | 1013.2 |
| 20260506134534 | 52 | 225 | 2.6 | 5.2 | 0.00 | 0.00 | 0.00 | 48 | 1013.2 |
| 20260506133933 | 51 | 270 | 1.7 | 3.5 | 0.00 | 0.00 | 0.00 | 45 | 1013.0 |
| 20260506133333 | 51 | 225 | 1.7 | 4.3 | 0.00 | 0.00 | 0.00 | 52 | 1012.9 |
| 20260506132733 | 50 | 270 | 2.6 | 4.3 | 0.00 | 0.00 | 0.00 | 57 | 1012.8 |
| 20260506132133 | 50 | 270 | 0.9 | 1.7 | 0.00 | 0.00 | 0.00 | 58 | 1012.8 |
| 20260506131533 | 49 | 270 | 0.0 | 0.9 | 0.00 | 0.00 | 0.00 | 59 | 1012.7 |
| 20260506130933 | 49 | 270 | 0.9 | 2.6 | 0.00 | 0.00 | 0.00 | 62 | 1012.7 |
| 20260506130333 | 48 | 270 | 0.9 | 1.7 | 0.00 | 0.01 | 0.00 | 67 | 1012.7 |
| 20260506125732 | 47 | 225 | 0.0 | 1.7 | 0.00 | 0.02 | 0.00 | 64 | 1012.8 |
| 20260506125132 | 46 | 225 | 1.7 | 1.7 | 0.00 | 0.03 | 0.00 | 71 | 1012.7 |
| 20260506124532 | 46 | 225 | 0.9 | 0.9 | 0.00 | 0.03 | 0.00 | 76 | 1012.6 |